Weather in Nyurbachan

Russia / Sakha (Yakutia) Republic     63°20′08″N   118°06′35″E
temp.,
°C
wind,
m/s
gust,
m/s
humid.,
%
clouds,
%
prec.,
mm/h
press.,
hPa
HPBL,
m
4 march, thu
thu400:00−36wnw239658 0.0 102651
03:00−33wnw379575 0.0 1026286
06:00−32wnw3795100 0.1 1027341
09:00−32wnw3895100 0.2 1028338
12:00−30wnw4893100 0.1 1028407
15:00−27w488999 0.1 1028517
18:00−26w399098 0.0 1029500
21:00−30w3108964 0.0 1031308
5 march, fri
fri500:00−32w38900 0.0 1032239
03:00−34wsw37921 0.0 1034148
06:00−35wsw379313 0.0 1034137
09:00−35wsw37956 0.0 1033167
12:00−28sw36920 0.0 1032358
15:00−24sw359220 0.0 1031434
18:00−25ssw239688 0.0 103039
21:00−28ssw229867 0.0 103019
6 march, sat
sat600:00−29s129836 0.0 102819
03:00−28sse129651 0.0 102821
06:00−26se239594 0.0 1026114
09:00−25ese239495 0.0 102473
12:00−21se249381 0.0 1022305
15:00−17se249391 0.1 1020404
18:00−17ese2496100 0.1 1019260
21:00−19ese229899 0.1 101952
7 march, sun
sun700:00−19ese229796 0.0 101852
03:00−19ese229898 0.1 101745
06:00−18ese2398100 0.1 1016103
09:00−17ese239799 0.2 1014131
12:00−12se259496 0.1 1012310
15:00−9se359398 0.3 1009470
18:00−8ese2596100 0.5 1007297
21:00−8ese2496100 1.2 1007142
8 march, mon
mon800:00−9se1297100 0.6 100529
03:00−10sse0097100 0.9 100421
06:00−12nw0197100 0.1 100421
09:00−11nw1197100 0.2 100540
12:00−8wnw2493100 0.1 1005347
15:00−6w2489100 0.3 1006575
18:00−7wsw269199 0.1 1007231
21:00−13wsw239463 0.1 100922